Simultaneous Nadir Overpasses (SNOs) Predictions

Prediction of SNOs between NOAA-20 and METOP-C Satellite Orbit:

Table of predicted SNOs for the next 14.0 days since TLE Epoch: 1/13/2024
Index Date (NOAA-20) Time (NOAA-20) Lat,Lon (NOAA-20) SZA (NOAA-20 ) Date (METOP-C) Time (METOP-C) Lat,Lon (METOP-C) SZA (METOP-C ) Distance(km) Time Diff (sec)
1 01/13/2024 04:20:12 72.76, 106.76 94.49 01/13/2024 04:20:34 72.77, 106.67 94.50 3.46 22
2 01/13/2024 05:10:56 -72.76, -85.94 85.52 01/13/2024 05:11:15 -72.77, -86.00 85.51 2.20 19
3 01/13/2024 06:01:42 72.76, 81.37 94.48 01/13/2024 06:01:56 72.75, 81.29 94.47 3.00 14
4 01/13/2024 06:52:26 -72.77,-111.33 85.52 01/13/2024 06:52:37 -72.75,-111.39 85.54 2.87 11
5 01/13/2024 07:43:12 72.77, 55.98 94.48 01/13/2024 07:43:17 72.78, 56.01 94.49 1.47 5
6 01/13/2024 08:33:56 -72.78,-136.72 85.52 01/13/2024 08:33:58 -72.78,-136.66 85.52 1.90 2
7 01/13/2024 09:24:42 72.78, 30.59 94.48 01/13/2024 09:24:39 72.76, 30.62 94.46 2.46 3
8 01/13/2024 10:15:25 -72.74,-162.01 85.58 01/13/2024 10:15:20 -72.76,-162.05 85.55 2.91 5
9 01/13/2024 11:06:11 72.74, 5.30 94.42 01/13/2024 11:06:01 72.74, 5.24 94.43 2.11 10
10 01/13/2024 11:56:55 -72.75, 172.60 85.58 01/13/2024 11:56:42 -72.74, 172.57 85.58 1.32 13
11 01/13/2024 12:47:41 72.74, -20.09 94.42 01/13/2024 12:47:22 72.77, -20.04 94.44 3.08 19
12 01/13/2024 13:38:25 -72.75, 147.21 85.59 01/13/2024 13:38:03 -72.77, 147.29 85.57 3.08 22
13 01/13/2024 14:29:11 72.75, -45.48 94.41 01/13/2024 14:28:44 72.75, -45.42 94.41 1.87 27
14 01/13/2024 15:19:55 -72.76, 121.82 85.59 01/13/2024 15:19:25 -72.75, 121.91 85.60 3.08 30
15 01/13/2024 16:10:40 72.71, -70.76 94.35 01/13/2024 16:10:06 72.73, -70.81 94.38 2.33 34
16 01/13/2024 17:01:24 -72.72, 96.54 85.65 01/13/2024 17:00:47 -72.73, 96.52 85.63 1.10 37
17 01/13/2024 17:52:10 72.72, -96.15 94.35 01/13/2024 17:51:28 72.70, -96.19 94.35 1.96 42
18 01/13/2024 18:42:54 -72.73, 71.15 85.65 01/13/2024 18:42:09 -72.70, 71.14 85.66 2.27 45
19 01/13/2024 19:33:40 72.73,-121.54 94.35 01/13/2024 19:32:49 72.73,-121.47 94.36 2.54 51
20 01/13/2024 20:24:24 -72.73, 45.76 85.65 01/13/2024 20:23:30 -72.73, 45.86 85.65 3.36 54
21 01/13/2024 21:15:09 72.68,-146.83 94.29 01/13/2024 21:14:11 72.71,-146.86 94.33 3.44 58
22 01/13/2024 22:05:53 -72.69, 20.47 85.71 01/13/2024 22:04:52 -72.71, 20.48 85.68 2.56 61
23 01/13/2024 22:56:39 72.69,-172.22 94.29 01/13/2024 22:55:33 72.69,-172.24 94.30 0.70 66
24 01/13/2024 23:47:23 -72.70, -4.92 85.72 01/13/2024 23:46:14 -72.69, -4.91 85.71 0.75 69
25 01/14/2024 00:38:09 72.70, 162.39 94.28 01/14/2024 00:36:55 72.67, 162.38 94.27 3.24 74
26 01/14/2024 01:28:51 -72.60, -30.10 85.83 01/14/2024 01:27:37 -72.62, -30.40 85.78 9.95 74
27 01/14/2024 02:19:33 72.40, 137.62 93.95 01/14/2024 02:18:22 72.39, 136.48 94.01 38.39 71
28 01/14/2024 03:10:15 -72.31, -54.88 86.16 01/14/2024 03:09:04 -72.34, -56.29 86.04 47.69 71
29 01/14/2024 04:00:57 72.10, 112.83 93.61 01/14/2024 03:59:49 72.11, 110.60 93.76 76.30 68
30 01/14/2024 04:51:39 -72.01, -79.68 86.50 01/14/2024 04:50:32 -72.02, -82.26 86.34 88.70 67



Historial Predications of SNOs between NOAA-20 and METOP-C
